Location: Ash Swamp
(41.5170°N, 74.6157°W)
Time: 17:03:00
(UTC+00:00)

Cosmos 1697 Rocket - Pass Details

Date: 14 July 2020
Orbit: 834 x 842 km, 71.0° (Epoch: 04 August)

Event Time Altitude Azimuth Distance (km) Brightness Sun altitude
Rises 07:14:28 0° 335° (NNW) 3,394 6.3 -20.1°
Reaches altitude 10° 07:16:55 10° 334° (NNW) 2,455 5.5 -19.8°
Maximum altitude 07:22:33 82° 248° (WSW) 847 2.6 -19.2°
Enters shadow 07:27:06 16° 162° (SSE) 2,045 4.4 -18.8°
